User: anonymous   Login
Location: Mentone
(34.5413°N, 85.5351°W)
Time: 02:25:43
(UTC-05:00)
Language:

ADEOS Rocket - Orbit

View from above orbital plane
View from above orbital plane
View from above satellite
View from above satellite

Ground track
Ground track

The orbit data is extracted from the following two-line orbital elements,

1 24279U 96046C   14304.14459067  .00000060  00000-0  12130-3 0  7508
2 24279 098.7309 354.7632 0299935 218.1499 195.8062 13.46998261894992
Epoch (UTC): 31 October 2014 03:28:12
Eccentricity: 0.0299935
inclination: 98.7309°
perigee height: 859 km
apogee height: 1307 km
right ascension of ascending node: 354.7632°
argument of perigee: 218.1499°
revolutions per day: 13.46998261
mean anomaly at epoch: 195.8062°
orbit number at epoch: 89499

The dashed part of the orbit path shows where the satellite is in the earth's shadow,  

DLR